GFSNE_sfc_wetblb_255.txt.gz
Wetbulb
57.02 57.22 56.31 55.87 54.75 53.63 52.58 51.99 49.69 45.02 46.49 46.47 46.65 48.72 50.20 48.59 49.08 49.52 50.78 51.99 55.51 56.80 57.57 57.56 57.38 57.54 57.96 57.72 56.92 55.82 54.29 52.97 52.17 51.49 51.05 50.19 49.75 49.95
56.86 56.26 55.96 55.32 54.17 53.45 52.49 51.95 51.63 49.40 47.06 48.27 46.22 46.37 48.62 49.58 49.06 47.86 48.91 49.71 52.80 55.33 55.81 55.52 55.36 55.44 56.17 56.70 56.09 55.01 53.84 52.60 51.61 51.20 50.81 50.24 49.97 49.52
56.18 55.74 54.99 54.84 54.04 54.17 53.20 51.65 50.22 49.75 47.40 46.78 47.30 45.97 44.85 46.49 47.28 46.55 46.91 46.71 47.39 52.54 54.68 54.67 54.56 54.47 54.42 55.29 55.11 54.17 52.97 52.02 51.15 50.54 50.11 49.89 49.60 48.96
54.59 54.63 54.76 54.57 53.63 54.26 53.55 52.39 51.27 50.26 48.59 47.24 45.90 44.47 44.53 44.62 45.90 45.28 45.25 45.71 45.58 48.88 51.94 53.44 53.80 53.80 53.61 53.88 54.02 53.03 51.70 51.11 50.70 49.72 49.19 49.14 48.87 48.54
53.65 53.58 53.59 53.97 53.42 52.88 52.65 51.59 52.14 52.10 50.31 49.13 48.30 44.53 43.39 40.80 40.98 40.62 40.15 40.84 42.40 46.21 49.44 51.06 52.67 53.10 52.94 52.73 53.02 51.89 50.53 49.80 49.32 48.84 48.84 48.14 47.95 47.49
53.51 53.57 53.18 53.01 52.43 53.05 52.98 52.38 51.65 50.74 48.63 49.08 47.95 43.17 41.83 40.45 39.57 38.28 37.27 37.75 41.31 41.67 44.56 46.58 49.44 50.87 52.04 51.97 51.72 49.98 48.88 48.59 48.81 48.53 47.89 47.44 46.94 45.83
52.61 52.89 51.89 50.77 50.20 52.69 52.76 51.54 51.30 51.78 50.84 49.54 48.22 42.47 41.63 39.12 39.76 41.06 41.22 39.21 35.80 37.63 38.33 40.28 43.28 46.10 48.52 50.18 49.17 48.27 48.13 48.07 47.86 47.91 47.44 46.98 45.80 44.35
50.77 51.21 51.30 47.84 49.68 50.79 50.86 50.85 52.45 51.91 51.14 50.46 49.18 44.12 44.95 42.59 41.49 42.77 41.87 37.03 38.00 35.95 37.32 38.11 40.44 42.78 44.57 45.77 48.29 48.22 47.71 47.43 47.12 46.81 46.54 46.29 45.34 43.61
47.82 49.79 49.99 50.78 49.52 50.74 49.52 49.31 49.28 49.99 50.80 51.26 49.45 49.33 48.00 45.54 44.03 42.74 39.33 40.87 42.09 37.48 37.45 36.13 37.46 39.49 43.05 43.63 46.76 47.22 46.87 46.55 46.34 45.96 45.71 45.30 43.95 42.68
44.73 46.42 48.76 49.64 49.96 49.86 50.00 49.73 49.55 49.87 49.69 49.97 50.62 51.15 50.95 49.59 47.42 46.50 45.09 42.68 38.03 36.21 37.89 35.67 36.44 37.11 40.62 40.71 44.45 46.28 46.00 45.91 45.58 45.39 45.25 44.34 43.16 41.71
43.22 44.10 45.61 47.10 48.58 48.54 49.47 48.83 49.00 49.62 49.17 48.46 48.46 48.46 48.80 49.12 48.48 46.16 40.73 39.04 37.26 35.27 35.21 35.91 34.52 34.87 35.86 36.97 39.42 44.49 45.49 45.42 45.32 45.01 44.19 43.13 42.04 40.92
41.80 42.79 44.25 45.10 46.46 47.69 48.13 47.88 46.49 47.32 47.46 46.39 46.85 47.01 47.15 48.29 47.42 47.26 44.83 39.85 38.80 32.14 35.17 35.12 32.31 32.42 31.96 32.85 35.50 38.71 42.03 44.76 44.66 43.76 43.03 42.21 40.96 35.11
40.98 41.20 42.52 44.65 45.49 46.26 46.90 47.08 46.58 47.28 46.40 46.41 45.66 44.91 44.28 44.42 45.67 46.34 46.19 42.80 40.11 36.67 36.15 35.79 32.35 31.81 32.03 29.60 30.30 33.02 36.59 37.62 40.33 40.43 41.97 40.81 39.69 37.29
39.68 41.00 41.78 42.86 43.50 44.31 45.14 46.11 46.24 46.22 43.99 41.69 39.73 38.95 38.21 38.65 38.59 38.47 37.68 36.26 36.93 37.40 37.05 35.87 32.60 32.73 31.01 28.27 28.27 29.69 31.12 33.19 34.61 33.89 32.58 35.70 38.82 38.63
39.62 39.67 40.55 40.89 41.55 41.93 42.98 43.71 44.39 43.52 40.22 37.05 36.76 34.94 33.66 33.72 32.85 32.28 32.37 32.44 32.01 32.80 36.36 33.40 32.95 32.07 31.80 29.40 27.35 27.94 28.63 29.82 30.55 30.25 29.85 29.77 29.37 29.59
39.17 38.30 39.50 40.27 41.46 41.47 41.50 41.99 41.64 40.06 38.11 36.75 33.73 32.56 31.93 32.33 31.98 32.27 31.56 31.37 29.48 28.49 30.99 32.40 32.25 31.79 29.34 29.56 29.30 27.59 28.48 26.44 27.76 27.54 28.41 28.29 28.65 28.61
39.92 37.63 35.55 34.71 35.16 35.79 34.17 34.74 35.13 35.47 33.84 32.71 31.86 31.08 31.21 31.52 30.77 31.81 31.15 30.20 28.26 26.61 26.39 27.62 28.97 29.70 29.74 29.37 27.16 27.42 26.10 25.21 25.92 25.81 25.10 24.04 26.10 27.11
36.77 33.67 33.31 33.01 33.15 33.10 32.70 32.54 32.84 34.14 32.52 32.26 31.80 31.52 30.69 30.36 29.54 29.87 30.40 29.27 27.25 26.48 25.82 26.01 26.56 26.27 26.69 27.44 29.15 25.06 24.76 23.14 23.32 23.62 23.11 19.77 22.32 24.88
34.17 32.97 32.34 32.36 32.42 32.30 32.27 32.09 31.93 32.08 32.10 32.03 31.62 30.96 30.24 29.30 30.21 28.82 28.89 28.43 26.98 26.94 26.30 25.43 24.37 24.08 22.31 22.87 23.52 28.94 18.22 20.83 20.06 21.13 21.23 19.94 18.18 22.07
33.06 32.36 32.13 32.15 32.00 31.85 31.71 31.65 31.42 31.26 30.93 30.80 30.48 30.08 29.56 29.73 28.50 28.71 28.84 28.20 26.32 24.84 24.01 24.31 23.11 23.03 22.90 21.91 16.89 20.08 25.43 16.09 16.14 15.43 14.19 18.40 21.53 26.27
32.18 32.11 32.09 31.87 31.68 31.64 31.61 31.59 31.64 31.10 28.36 27.85 28.12 28.33 29.57 29.36 28.74 28.76 28.43 28.66 27.12 24.77 22.79 22.69 23.79 24.41 17.13 16.22 15.47 16.79 19.63 24.22 22.15 13.55 11.91 11.34 14.69 18.07
32.09 32.41 31.58 31.75 31.82 32.10 31.93 31.61 31.53 31.83 30.31 26.93 23.26 24.31 27.96 28.77 27.66 27.97 28.47 27.12 25.17 24.62 21.99 20.63 20.31 18.52 14.69 13.15 9.75 10.83 15.56 18.82 21.93 24.52 25.60 22.60 12.23 13.58
31.40 31.37 31.67 31.71 32.12 32.28 32.15 31.87 31.39 30.32 29.32 24.72 22.80 25.23 27.06 26.87 27.95 28.07 26.81 25.86 24.15 21.79 20.81 18.90 18.52 17.47 14.52 11.72 10.63 9.61 10.63 13.07 16.82 16.85 18.92 24.44 25.60 26.34

GFSNE_sfc_wetblb_261.txt.gz
Wetbulb
58.54 58.75 58.14 57.61 56.94 57.12 55.98 56.52 52.82 48.09 48.40 50.15 50.94 52.22 53.67 53.03 53.03 53.99 55.11 54.49 56.82 58.11 58.88 58.85 58.45 58.37 59.23 59.49 59.29 59.24 59.19 58.50 57.97 57.27 55.80 54.79 53.99 53.45
58.47 57.46 57.54 57.71 56.67 56.16 55.20 55.28 56.08 53.04 49.91 52.65 52.12 51.27 52.82 52.85 52.83 53.11 54.87 51.84 53.95 56.62 57.09 56.50 56.37 56.44 56.75 57.28 57.93 58.20 58.20 57.98 57.86 57.36 56.37 55.60 54.74 53.85
58.24 57.32 56.99 57.18 55.94 55.87 56.26 56.37 54.66 54.44 52.33 51.41 53.16 53.33 51.35 52.16 51.99 52.86 52.77 53.28 53.98 53.51 55.56 55.71 55.41 55.40 55.64 55.73 55.78 56.50 57.28 57.63 57.60 57.46 56.68 56.06 55.31 54.33
57.23 56.95 56.80 56.50 55.70 55.71 55.45 54.87 54.94 55.35 53.71 52.58 50.02 48.43 50.51 50.13 50.30 50.37 50.27 51.06 52.91 51.85 52.95 53.84 54.47 54.66 54.79 54.80 54.56 54.61 54.71 55.57 56.04 56.08 56.15 56.18 55.75 54.57
57.39 57.14 56.49 56.25 55.64 55.41 54.71 54.22 54.38 53.70 54.67 51.39 47.97 46.99 46.29 45.35 46.64 48.00 49.07 50.37 49.77 48.81 50.99 51.91 52.83 53.45 54.02 54.16 53.86 53.55 53.19 53.40 54.08 53.98 54.04 54.21 54.56 54.67
57.41 56.86 56.71 56.09 55.84 55.00 54.22 53.71 53.25 52.61 52.85 51.73 50.04 46.69 46.35 43.86 45.16 47.32 45.86 46.01 47.45 46.48 47.50 48.91 50.43 51.01 52.09 52.92 52.69 51.52 51.19 51.86 52.91 53.58 52.83 52.00 51.94 52.56
56.22 56.34 56.50 54.71 52.07 54.18 54.62 54.25 53.60 52.30 51.18 51.35 49.50 47.44 46.60 44.40 45.81 47.00 47.01 48.57 46.55 46.45 46.33 46.31 47.71 48.38 49.53 50.01 49.50 49.15 50.37 51.31 51.65 52.36 52.72 52.02 50.94 50.72
54.42 55.16 54.98 50.13 50.80 51.14 51.30 51.35 53.04 52.42 51.12 50.73 49.44 48.68 47.75 47.76 47.52 47.79 46.88 45.65 46.51 45.06 44.91 47.43 46.54 46.38 46.92 48.00 48.23 48.60 49.31 50.40 50.91 51.12 51.49 51.43 50.56 49.53
53.69 53.24 52.83 53.65 51.77 53.43 50.41 50.03 50.04 50.40 51.69 53.26 50.64 49.75 49.88 50.91 50.04 45.59 45.74 46.07 47.55 45.94 43.98 44.38 43.24 44.01 46.47 45.41 46.12 46.93 47.95 49.11 49.56 50.05 50.16 50.04 49.67 48.92
52.88 52.85 52.77 51.84 52.46 52.39 52.07 51.88 52.07 52.19 52.09 52.08 52.95 51.99 52.98 51.96 49.61 49.15 48.40 47.84 45.53 43.69 43.81 42.07 43.00 42.47 45.44 45.22 44.99 45.84 46.77 47.62 48.46 49.04 49.37 49.10 48.38 47.91
48.83 51.85 52.11 51.41 49.25 49.59 51.41 50.73 50.48 50.86 49.61 48.95 49.70 49.14 48.98 48.72 49.19 47.67 44.93 42.20 40.57 40.88 41.03 40.58 40.11 42.39 41.43 42.72 43.80 43.93 45.75 46.42 47.22 48.20 48.74 48.45 47.58 47.17
43.19 44.74 45.23 46.54 47.14 48.08 49.68 49.05 47.75 48.71 49.01 48.20 47.93 47.77 48.20 49.13 47.43 50.37 48.46 42.26 38.13 35.55 39.40 37.94 38.05 37.60 37.13 37.59 38.23 39.16 40.46 43.23 45.38 46.58 47.38 47.79 47.03 44.58
40.75 41.33 43.42 44.82 45.13 45.47 46.42 47.35 47.05 47.97 48.24 48.22 47.97 48.24 47.66 48.13 48.02 48.17 47.82 45.80 38.06 38.10 40.63 38.03 34.52 34.73 34.52 35.32 33.26 33.70 35.60 37.85 40.05 42.32 45.38 46.58 46.30 44.57
38.24 39.16 41.07 42.44 42.99 43.97 45.14 45.95 46.47 46.94 46.59 45.54 43.19 42.81 42.79 43.13 43.30 42.85 41.55 41.02 40.02 40.58 40.70 37.51 33.32 34.52 33.25 32.35 33.14 32.44 32.86 34.47 35.73 36.32 37.46 42.67 44.98 45.14
39.53 40.06 40.60 40.89 41.38 41.86 42.63 43.68 44.66 44.22 43.14 39.98 39.35 38.33 36.99 38.39 35.92 33.98 33.69 33.83 33.27 33.54 36.96 35.03 34.08 33.12 33.05 32.89 32.43 30.98 32.27 32.50 33.47 33.78 34.00 34.62 34.81 35.38
38.33 39.84 39.74 39.67 40.26 40.52 41.51 41.99 42.50 42.87 41.12 39.34 36.43 35.65 33.96 33.54 33.39 33.47 32.85 32.94 32.96 31.92 31.98 33.16 33.14 33.18 32.29 32.44 31.99 30.77 31.32 31.96 32.35 32.03 31.95 32.00 32.64 33.39
38.34 37.72 36.66 35.87 35.73 36.79 35.87 36.28 36.78 38.45 37.91 36.39 34.48 33.61 32.92 32.85 32.44 32.78 32.51 32.18 32.36 30.78 29.73 29.99 30.89 31.56 31.61 31.93 30.39 31.02 30.09 30.88 30.75 31.14 31.09 31.16 31.53 32.45
36.52 35.74 34.26 34.72 35.17 35.09 34.46 34.05 34.12 35.39 34.19 33.76 33.56 33.27 32.80 32.69 32.08 31.78 31.95 32.13 31.68 29.49 28.56 28.65 29.12 29.32 29.48 29.80 31.37 29.95 29.85 29.96 29.65 28.70 27.91 28.25 28.31 29.73
35.32 34.91 34.21 33.33 33.40 33.84 33.92 33.59 33.29 33.38 32.80 33.21 32.85 32.58 32.45 32.22 32.81 31.26 31.15 30.88 29.83 29.04 28.19 28.43 28.77 29.29 28.54 28.20 26.80 28.73 28.71 27.05 26.82 26.23 25.49 25.59 25.07 26.43
34.16 33.82 33.49 33.02 32.93 33.05 33.00 32.87 32.87 32.94 33.07 32.60 32.62 32.49 32.13 31.95 30.80 30.54 30.41 29.96 28.90 27.01 26.36 27.69 29.01 30.22 30.38 29.53 26.01 24.76 25.99 25.01 25.19 24.46 24.14 23.71 24.72 26.58
33.44 32.90 32.96 32.65 32.65 33.06 33.04 33.00 32.94 32.87 32.21 31.90 31.97 31.72 31.80 31.75 30.90 30.98 30.92 31.28 29.91 28.45 26.84 26.84 28.09 28.13 24.79 25.74 24.07 21.59 22.78 25.07 24.34 23.61 22.77 21.86 21.02 21.41
32.35 32.06 32.11 32.30 32.56 32.77 32.58 32.67 32.58 32.94 31.82 31.14 30.63 30.34 31.11 30.94 30.28 29.74 30.23 30.54 28.61 28.16 25.44 24.07 24.84 24.77 23.99 23.03 20.46 19.68 20.70 21.83 23.33 24.52 25.87 24.78 22.70 19.80
31.35 31.75 32.06 32.14 32.54 32.87 32.83 32.45 32.52 32.60 31.91 30.95 30.00 29.84 29.93 29.32 29.16 29.60 29.44 27.93 26.17 23.99 23.05 22.31 22.69 22.80 21.15 21.18 20.15 19.41 17.83 19.23 20.70 20.54 22.13 24.06 25.62 26.82

GFSNE_sfc_wetblb_267.txt.gz
Wetbulb
59.15 59.46 59.13 59.78 59.89 59.38 58.64 57.67 54.95 51.25 51.68 54.38 55.24 58.68 59.07 57.98 56.32 57.98 59.19 55.35 57.66 58.75 59.83 60.24 59.45 59.23 59.66 60.52 60.76 60.75 60.75 60.17 60.03 59.93 59.79 59.13 57.68 57.51
55.77 58.85 59.02 59.25 59.19 59.55 58.31 57.84 57.27 55.14 51.89 55.31 54.82 55.40 56.70 56.56 55.87 57.65 57.30 52.88 55.46 57.26 57.46 56.83 57.18 57.45 57.76 58.55 59.05 59.28 59.41 59.54 59.73 59.97 60.24 59.83 59.20 58.13
47.33 57.63 58.40 58.85 58.64 58.86 58.39 57.62 57.03 56.65 54.33 55.48 56.14 55.50 55.52 55.10 54.72 55.40 55.04 55.11 55.28 54.68 56.00 56.11 55.89 55.83 56.27 56.56 56.99 57.53 57.99 58.61 59.20 59.72 59.83 59.70 59.62 59.13
47.05 53.12 57.11 58.24 57.79 58.29 57.96 57.07 57.14 57.51 56.22 54.45 55.12 54.74 54.50 55.90 55.71 54.24 54.93 55.56 56.04 54.57 54.74 54.87 55.21 55.48 55.62 55.66 55.30 55.42 55.40 55.75 56.40 57.48 58.36 58.83 59.07 59.01
44.67 46.77 55.77 56.89 57.03 57.19 57.30 56.43 56.61 56.72 57.25 55.87 52.87 53.47 51.81 53.57 53.57 53.97 54.40 54.65 55.12 52.78 54.16 53.97 54.31 54.67 54.80 54.79 54.46 54.10 53.62 53.74 53.91 53.93 54.67 55.62 56.78 57.90
44.03 48.18 50.81 56.54 56.62 56.90 56.37 56.56 56.28 56.18 56.30 56.00 52.09 51.54 51.43 48.58 51.22 49.79 48.61 51.55 51.83 52.12 51.74 51.92 52.62 52.46 53.21 53.85 53.11 51.76 51.44 52.06 53.06 53.51 53.15 52.68 52.97 54.42
41.32 45.22 49.75 54.62 52.50 55.72 56.45 55.94 55.89 55.55 55.04 54.63 51.86 51.25 47.02 46.08 47.99 49.80 50.53 49.00 48.70 50.35 49.48 49.54 49.62 49.61 50.37 51.43 50.45 49.65 50.38 51.41 51.87 52.38 52.80 52.84 52.27 52.39
39.91 43.37 47.85 49.23 51.34 51.51 51.93 52.75 55.08 54.68 54.07 53.72 53.10 51.13 49.94 50.65 49.79 50.13 50.39 49.13 46.95 50.36 48.88 48.68 49.36 49.04 50.06 50.82 50.69 49.86 49.86 50.15 50.45 50.67 50.95 51.24 51.20 51.30
39.91 42.43 46.33 50.09 52.24 55.20 52.14 51.28 51.34 51.97 53.50 54.93 53.22 52.07 51.56 52.67 51.34 50.11 49.73 50.27 49.56 48.66 48.89 47.86 48.15 47.69 50.25 49.79 49.44 49.04 48.90 48.94 49.03 49.12 49.11 49.22 49.42 49.83
39.42 42.48 45.22 48.27 53.52 55.02 55.13 54.30 54.75 54.60 54.12 54.38 55.16 54.40 54.71 53.89 53.23 52.55 51.29 51.17 49.35 46.93 49.68 44.93 47.81 45.84 48.77 49.10 48.77 47.79 47.35 47.18 47.12 47.30 47.60 47.78 47.87 48.29
40.28 43.95 45.49 48.02 50.73 50.56 54.62 53.72 54.04 54.23 52.03 50.79 51.72 51.25 50.79 51.22 52.60 52.92 50.62 48.62 44.83 45.72 46.06 44.37 44.09 44.64 46.24 45.74 47.64 47.48 45.22 45.07 45.52 46.24 46.88 47.02 46.95 47.20
39.97 44.28 45.07 47.27 49.40 50.16 53.76 53.52 52.36 53.15 53.24 52.04 52.37 50.10 50.57 50.93 49.53 53.32 51.21 46.28 38.74 37.67 43.70 39.78 38.22 40.55 37.02 39.78 41.05 41.84 41.82 43.31 42.53 43.54 44.39 45.01 45.67 43.21
36.72 41.49 44.05 47.32 48.60 50.33 51.65 53.91 53.03 53.76 51.47 52.01 51.63 51.41 51.26 50.13 51.34 52.14 51.26 47.77 39.77 38.14 43.30 40.10 35.71 33.55 34.77 35.56 35.12 36.30 36.77 37.27 38.81 38.57 40.64 41.44 42.33 42.82
34.73 37.87 41.11 43.10 46.81 49.07 50.97 52.13 50.37 50.68 51.83 51.29 50.28 49.11 48.72 48.99 48.75 48.43 47.63 45.52 44.99 44.17 44.14 40.22 34.37 35.91 34.01 33.44 35.04 34.22 35.63 35.95 35.50 35.03 33.83 38.33 39.89 41.18
35.13 36.93 39.98 42.01 45.45 48.56 49.91 49.90 48.39 51.58 50.62 48.53 47.69 46.41 45.38 46.30 39.70 36.01 35.38 35.29 34.52 35.70 39.34 36.57 35.33 33.71 33.82 33.75 33.88 33.14 34.22 33.60 33.31 33.25 33.47 34.11 33.66 34.65
36.43 35.37 37.16 39.53 42.36 49.43 49.52 48.23 51.62 51.60 50.00 48.28 46.03 41.99 38.54 38.57 35.82 34.75 33.53 33.34 33.55 32.41 32.49 33.70 33.77 33.80 32.92 33.39 33.72 32.76 32.36 32.61 32.88 33.23 30.51 32.51 33.58 33.76
36.28 34.72 33.91 34.00 35.50 36.30 41.97 47.97 49.90 48.80 46.95 42.07 40.22 38.65 36.49 36.65 33.21 33.72 33.17 32.81 33.17 32.70 31.00 31.15 32.14 32.67 32.50 32.82 32.21 31.90 31.43 31.70 31.84 31.07 30.76 30.88 32.05 31.19
34.47 32.32 32.25 32.08 32.29 32.90 34.96 36.12 39.50 38.91 38.50 39.69 38.76 37.56 35.89 35.58 33.34 32.56 32.56 33.34 33.48 32.53 31.52 30.14 30.39 30.40 30.05 29.76 31.97 31.05 30.97 31.02 30.63 29.89 29.29 29.35 30.41 29.58
32.20 31.91 31.84 31.77 31.79 31.87 32.31 33.24 33.28 34.51 34.94 34.91 34.97 34.72 34.21 33.78 33.50 32.73 32.69 32.91 32.37 32.08 31.02 30.59 30.63 31.60 29.36 28.97 27.42 30.11 30.49 29.65 29.09 28.32 24.82 23.73 22.43 25.67
31.95 31.79 31.65 31.73 31.77 31.77 31.82 31.86 32.95 33.70 33.85 33.65 33.48 33.42 33.30 33.19 32.72 32.37 32.53 32.57 31.54 29.61 28.43 29.33 30.14 31.22 31.34 30.85 27.18 25.42 28.62 27.57 26.13 23.50 23.43 24.66 25.33 29.76
31.49 31.46 31.69 31.72 31.74 31.76 31.79 31.91 32.51 32.77 32.82 32.83 32.76 32.82 32.82 32.97 32.34 32.36 32.48 33.45 31.68 29.21 27.63 27.49 30.20 33.34 29.80 30.06 24.90 23.46 24.63 25.99 25.22 20.58 20.06 19.68 20.59 21.87
30.60 30.68 31.34 31.63 31.87 32.13 32.04 32.27 32.04 32.03 32.01 32.13 32.08 32.41 32.18 32.61 32.31 31.97 32.10 32.08 30.74 30.50 28.28 26.82 28.50 29.45 27.42 26.86 23.93 19.04 20.72 22.89 25.20 25.87 26.20 24.54 17.13 14.45
28.35 29.52 29.88 30.30 31.26 31.86 32.21 32.07 31.97 31.83 31.81 31.68 31.54 31.66 31.96 31.54 31.86 31.99 32.04 30.88 28.85 26.30 25.93 25.38 26.31 25.22 24.17 20.15 19.38 16.66 15.11 18.14 19.62 19.84 21.77 26.93 26.60 26.83

GFSNE_sfc_wetblb_270.txt.gz
Wetbulb
44.09 46.77 52.08 59.37 58.76 58.25 58.01 56.95 54.20 50.12 52.17 51.91 52.48 55.20 55.65 55.42 56.05 57.78 58.14 56.16 58.59 59.85 60.73 60.58 59.90 60.02 60.59 61.18 61.34 61.42 61.27 60.72 60.67 60.68 60.38 59.56 58.85 58.37
42.37 44.25 47.32 57.96 59.08 58.33 57.72 57.43 56.69 54.42 51.49 51.67 52.65 53.82 56.02 55.94 54.34 57.01 56.89 53.91 56.34 58.24 58.60 58.14 57.98 57.90 58.27 59.05 59.51 59.73 59.89 60.08 60.44 60.73 60.88 60.46 60.09 59.58
41.57 43.27 44.91 48.42 58.03 58.71 57.93 57.56 56.23 55.05 52.34 51.90 52.91 52.30 53.92 54.23 54.46 54.73 54.39 54.39 55.73 56.07 57.25 56.49 56.29 56.27 56.29 56.74 57.17 57.86 58.43 59.15 59.78 60.41 60.63 60.45 60.27 59.96
36.84 40.27 42.52 46.43 50.37 57.98 58.24 56.73 55.78 55.52 54.14 52.09 52.15 50.39 51.71 55.27 54.99 53.08 53.48 54.17 53.97 53.65 55.22 55.36 55.44 55.61 55.79 55.83 55.76 56.00 56.00 56.59 57.34 58.13 58.96 59.30 59.60 59.62
36.56 38.28 40.79 43.22 45.50 56.18 57.43 56.79 56.25 55.61 55.05 53.34 50.17 51.20 48.86 53.98 53.09 52.18 51.53 51.53 53.60 52.29 54.28 54.38 54.90 54.98 55.02 55.12 54.83 54.55 54.11 54.24 54.32 54.40 55.11 55.98 57.00 57.91
38.22 38.07 41.80 43.07 44.52 47.20 56.08 56.50 56.26 55.61 54.98 54.94 52.42 51.98 51.44 49.53 53.28 52.09 51.37 53.12 52.97 52.96 52.50 53.00 53.52 53.43 54.03 54.46 53.62 52.21 51.93 52.62 53.59 53.86 53.36 52.81 53.00 54.36
35.86 37.64 38.88 41.49 42.90 44.78 49.59 55.83 56.00 55.26 54.88 54.69 51.60 49.95 48.39 47.25 50.12 51.08 50.97 51.04 50.66 48.80 48.82 49.20 49.13 49.49 50.65 52.25 51.14 50.18 50.81 51.66 52.07 52.58 52.97 53.00 52.34 52.44
34.75 36.46 38.73 40.73 42.85 44.92 46.42 49.97 55.33 55.06 54.38 54.42 53.89 51.85 49.71 49.65 51.06 50.56 50.51 47.62 46.01 47.11 47.56 46.50 48.91 48.44 50.20 49.86 50.52 50.32 50.14 50.70 50.90 51.03 51.22 51.45 51.28 51.28
34.92 35.88 37.41 40.50 42.83 45.16 46.97 49.97 51.54 52.10 54.00 55.32 54.42 53.06 52.20 51.12 50.46 50.14 50.07 50.38 49.95 46.95 47.07 44.84 46.18 45.67 48.10 49.68 49.56 49.33 49.42 49.52 49.50 49.62 49.45 49.36 49.31 49.42
35.68 36.42 37.06 38.42 41.21 44.24 47.03 52.10 53.96 53.67 54.03 54.98 55.31 55.31 55.02 52.68 51.41 51.83 50.89 50.17 46.68 45.99 48.44 42.44 45.81 44.93 48.08 48.50 49.17 48.93 48.39 47.82 47.40 47.23 47.31 47.31 47.14 47.28
36.15 37.41 38.01 38.42 41.33 43.77 45.41 48.74 52.92 53.79 52.00 50.89 51.73 51.56 50.85 50.78 52.14 51.89 49.41 48.34 44.34 44.40 46.66 45.28 45.06 44.64 45.75 43.86 45.54 47.80 47.02 46.25 45.80 45.71 46.19 46.49 46.49 46.63
36.33 37.82 39.11 39.56 41.80 43.83 44.48 46.38 51.48 52.92 53.75 52.82 51.98 50.59 50.95 50.97 49.27 53.06 51.36 48.87 40.34 37.65 44.59 39.99 39.34 39.67 36.85 37.65 39.62 40.55 40.99 43.92 43.15 43.56 43.64 43.50 43.40 39.81
34.26 34.97 37.44 40.89 43.07 43.78 45.11 46.92 49.96 53.32 52.72 53.58 52.96 53.17 53.04 52.89 52.23 52.96 52.76 51.64 43.25 36.87 44.43 40.19 34.48 33.79 34.70 33.99 31.49 34.66 36.43 36.95 37.97 38.17 39.59 40.17 41.14 40.62
33.52 34.72 35.85 38.41 40.96 44.17 44.52 47.21 48.50 50.02 53.59 52.81 52.04 51.73 51.24 51.53 51.70 52.23 50.95 49.45 47.34 44.80 45.07 39.24 34.22 35.48 33.77 33.28 36.10 33.63 31.38 35.42 35.53 34.60 32.40 36.29 37.76 38.67
35.07 36.00 37.85 38.11 39.07 42.40 44.86 45.08 47.61 50.67 52.10 50.86 50.09 49.78 50.13 50.43 43.36 37.09 37.33 36.92 34.92 36.71 42.10 37.09 37.23 34.16 34.56 34.40 34.46 33.70 33.93 33.08 33.32 31.95 31.26 32.99 33.26 34.08
35.61 36.08 36.45 37.61 39.42 43.24 44.91 46.41 48.73 51.88 51.35 50.65 49.60 49.19 43.88 42.34 42.91 37.80 37.30 36.89 34.64 32.23 32.89 34.37 34.69 35.40 33.50 33.55 34.64 33.02 32.97 33.42 32.63 29.79 31.76 32.16 32.79 33.96
35.90 34.71 32.78 33.26 34.61 36.63 44.54 47.36 48.87 50.54 49.92 49.66 47.54 41.64 42.91 43.03 40.01 38.43 37.72 35.20 33.96 32.66 30.56 31.65 32.59 32.97 32.98 33.28 32.71 32.80 31.83 31.80 31.58 30.87 30.96 29.93 31.54 30.90
33.71 31.78 31.70 31.82 31.97 32.60 33.26 41.30 47.43 48.18 48.41 47.92 45.03 42.51 41.04 40.15 37.09 36.45 37.25 36.40 35.15 33.94 30.65 30.09 31.51 31.06 30.58 30.46 33.23 31.19 31.15 31.11 30.23 29.75 29.24 29.09 29.54 29.08
31.75 31.56 31.06 31.27 31.34 31.93 32.43 32.58 32.49 36.20 41.13 42.03 41.52 40.96 40.09 38.39 36.91 35.73 36.14 36.16 33.96 33.56 31.97 31.38 32.24 32.34 30.23 30.45 27.57 31.29 30.62 29.75 29.10 28.46 28.31 22.69 20.33 24.35
31.09 30.50 30.41 31.03 31.19 31.29 31.71 32.18 32.45 33.65 36.96 37.47 36.29 36.31 37.21 36.76 35.72 34.97 35.19 34.53 33.09 30.02 29.08 30.60 32.24 32.71 32.86 31.94 26.73 25.76 29.74 28.67 27.36 24.75 18.98 21.14 23.89 29.37
28.57 28.87 30.17 30.81 31.15 31.54 31.59 31.81 32.16 32.20 33.25 33.78 34.13 34.13 34.07 34.55 33.58 33.74 34.12 34.91 33.13 30.89 28.78 28.62 30.72 33.90 30.04 29.73 25.84 23.75 24.81 27.55 25.17 17.37 15.96 15.31 17.38 20.19
27.51 27.97 28.61 29.41 30.35 31.51 31.59 31.67 31.62 31.68 31.78 32.59 32.42 32.66 33.13 33.38 32.84 33.13 33.23 31.95 30.94 30.48 28.03 28.78 30.04 30.40 29.20 29.24 24.33 22.07 22.09 22.26 24.65 26.14 26.52 23.31 14.43 10.15
26.62 27.95 28.33 28.64 29.19 30.08 31.63 31.61 31.28 30.89 31.16 31.39 31.66 31.73 31.81 31.67 32.12 32.28 31.64 30.60 28.26 26.99 26.80 26.15 25.88 26.21 25.28 25.21 22.27 20.54 18.64 16.44 18.14 17.37 19.73 27.19 27.24 27.41